Location: Long Geng
(2.6167°N, 114.1333°E)
Time: 00:02:47
(UTC+00:00)

Palapa 6 Rocket - Pass Details

Date: 14 May 2021
Orbit: 485 x 1216 km, 22.7° (Epoch: 12 June)

Event Time Altitude Azimuth Distance (km) Brightness Sun altitude
Exits shadow 20:43:28 82° 267° (W) 522 2.5 -21.8°
Maximum altitude 20:43:37 87° 338° (NNW) 520 2.5 -21.8°
Drops below altitude 10° 20:47:52 10° 65° (ENE) 1,870 6.7 -20.8°
Sets 20:50:21 0° 66° (ENE) 2,870 8.1 -20.2°
